Flag for U.S.A. Weather past 2 weeks in Louisville, Kentucky, U.S.A.

Now
51 °F

Passing clouds.


Feels Like: 48 °F
Forecast: 45 / 65 °F
Wind: 8 mph from West

Location: Standiford Field

Current Time: Apr 20, 2015 at 11:47:09 PM

Latest Report: Apr 20, 2015 at 10:56 PM


Visibility: 10 mi

Pressure: 29.83 "Hg

Humidity: 54%

Dew point: 35 °F

Location of LouisvilleLocation

Historic Weather in Louisville — Graph

°F

Louisville temperature yesterday

Maximum temperature yesterday: 72 °F (at 4:56 PM)
Minimum temperature yesterday: 60 °F (at 7:56 AM)
Average temperature yesterday: 66 °F

Past Weeks' High & Low Weather Summary

 TemperatureHumidityPressure
High83 °F (Apr 9, 3:56 PM)96% (Apr 7, 7:56 AM)30.29 "Hg (Apr 7, 7:56 AM)
Low45 °F (Apr 11, 6:56 AM)19% (Apr 12, 4:56 PM)29.44 "Hg (Apr 19, 7:56 PM)
Average65 °F64%29.99 "Hg
* Reported Apr 5 9:56 PM — Apr 20 9:56 PM, Louisville, Weather by CustomWeather, © 2015

Note: Actual official high and low records may vary slightly from our data, if they occured in-between our weather recording intervals... More about our weather records

Advertising

Louisville weather history for previous 24 hours

 ConditionsComfort  
Time TempWeatherWind HumidityBarometerVisibility
9:56 PM
Mon, Apr 20
54 °FPassing clouds.14 mph49%29.80 "Hg10 mi
8:56 PM56 °FPartly sunny.12 mph51%29.76 "Hg10 mi
7:56 PM57 °FScattered clouds.16 mph47%29.72 "Hg10 mi
6:56 PM60 °FBroken clouds.18 mph44%29.70 "Hg10 mi
5:56 PM61 °FBroken clouds.15 mph48%29.68 "Hg10 mi
4:56 PM61 °FOvercast.16 mph52%29.65 "Hg10 mi
3:56 PM58 °FMostly cloudy.22 mph60%29.66 "Hg10 mi
2:56 PM57 °FMostly cloudy.16 mph69%29.65 "Hg10 mi
1:56 PM59 °FOvercast.18 mph62%29.63 "Hg10 mi
12:56 PM59 °FOvercast.20 mph67%29.61 "Hg10 mi
11:56 AM60 °FPartly sunny.15 mph67%29.59 "Hg10 mi
10:56 AM59 °FMostly cloudy.10 mph78%29.57 "Hg10 mi
9:56 AM59 °FMostly cloudy.15 mph84%29.53 "Hg10 mi
8:56 AM59 °FMostly cloudy.12 mph87%29.51 "Hg10 mi
7:56 AM59 °FLight rain. Overcast.13 mph87%29.50 "Hg8 mi
7:04 AM59 °FOvercast.14 mph87%29.50 "Hg10 mi
6:56 AM59 °FMostly cloudy.13 mph87%29.49 "Hg10 mi
5:56 AM60 °FMostly cloudy.12 mph86%29.48 "Hg10 mi
4:56 AM61 °FLight rain. Mostly cloudy.10 mph87%29.48 "Hg10 mi
3:56 AM62 °FLight rain. Overcast.10 mph90%29.50 "Hg4 mi
2:56 AM62 °FPartly cloudy.6 mph86%29.50 "Hg10 mi
1:56 AM62 °FPassing clouds.8 mph86%29.52 "Hg10 mi
12:56 AM63 °FPassing clouds.10 mph84%29.52 "Hg10 mi
11:56 PM
Sun, Apr 19
63 °FPartly cloudy.13 mph87%29.52 "Hg10 mi
Weather by CustomWeather, © 2015

See weather overviewHow to use our weather pages